Weather Roundup
Issued by NWS Chicago, IL

Home | Current Version | Previous Version | Graphics & Text | Print | Product List | Glossary On
Versions: 1 2 3 4 5 6 7 8 9 10 11 12 13 14 15 16 17 18 19 20 21 22 23 24 25 26 27 28 29 30 31 32 33 34 35 36 37 38 39 40 41 42 43 44 45 46 47 48 49 50
000
NZUS59 KLOT 180703
HRRLOT

CHICAGO AREA WEATHER ROUNDUP
NATIONAL WEATHER SERVICE CHICAGO/ROMEOVILLE IL
100 AM CST SAT NOV 18 2017

NOTE: "FAIR" INDICATES FEW OR NO CLOUDS BELOW 12,000 FEET WITH NO
SIGNIFICANT WEATHER AND/OR OBSTRUCTIONS TO VISIBILITY.

* THESE STATIONS ARE NOT UNDER NWS QUALITY CONTROL. THEY ALSO MAY NOT
  REPORT WEATHER SUCH AS PRECIPITATION OR FOG.

ILZ005-006-012>014-019>023-180800-
NORTHEAST ILLINOIS

CITY           SKY/WX    TMP DP  RH WIND       PRES   REMARKS
OHARE          LGT RAIN  47  45  93 N3        29.56S FOG
MIDWAY         CLOUDY    48  47  96 NW5       29.55S FOG
AURORA         CLOUDY    47  46  97 NW6       29.55F FOG
LANSING*       DRIZZLE   47  46  99 SW5       29.56F
JOLIET*        CLOUDY    49  48  94 CALM      29.55F
WAUKEGAN       CLOUDY    44  44 100 CALM      29.55F FOG
DUPAGE AIRPORT LGT RAIN  46  46 100 NW3       29.55S FOG
WHEELING       CLOUDY    47  46  97 N3        29.57F FOG
KANKAKEE*      CLOUDY    49  45  83 SW12      29.54F
MORRIS*        CLOUDY    48  46  95 CALM      29.53F FOG
LEWIS AIRPORT* CLOUDY    47  46  94 SW6       29.54F FOG
NORTHERLY ISL    N/A     47  45  93 N8          N/A
$$

WIZ051-052-058>065-066-070>072-180800-
SOUTHEAST WISCONSIN

CITY           SKY/WX    TMP DP  RH WIND       PRES   REMARKS
MILWAUKEE      CLOUDY    43  42  97 CALM      29.55F
KENOSHA*       CLOUDY    44  42  93 NW3       29.55F FOG
RACINE*        CLOUDY    43  42  97 CALM      29.58F FOG
WEST BEND      CLOUDY    37  37 100 W6        29.56F
$$

INZ001>003-010>013-019-020-180800-
NORTHWEST INDIANA

CITY           SKY/WX    TMP DP  RH WIND       PRES   REMARKS
GARY*          RAIN      49  46  90 SW3       29.56F
MICHIGAN CITY* NOT AVBL
RENSSELAER*    NOT AVBL
VALPARAISO     LGT RAIN  46  45  96 CALM      29.57F FOG
$$

LMZ740>746-180800-
SOUTHERN LAKE MICHIGAN

STATION/POSITION TIME  SKY/WX   TEMP WIND        PRES    VSBY
                                AIR  DIR/SP/G
                 (UTC)          (F)  (DEG/KT/KT) (MB)    (MI)
HARRISON CRIB    0640            49  300/ 10/ 12   N/A
BURNHAM HARBOR   0700            47  280/  3/  8   N/A
CALUMET HARBOR   NOT AVBL
BURNS HARBOR     0640            47  210/  4/  7 1002.0F
MICHIGAN CITY    0640            44  190/  6/  7   N/A
$$

ABBREVIATIONS USED IN REMARKS
   TC - TEMPERATURE IN CELSIUS
  WCI - WIND CHILL INDEX
   HX - HEAT INDEX
  VSB - VISIBILITY
$$



USA.gov is the U.S. government's official web portal to all federal, state and local government web resources and services.